Regional Weather Roundup
Issued by NWS Kansas City/Pleasant Hill, MO

Home | Current Version | Previous Version | Graphics & Text | Print | Product List | Glossary Off
Versions: 1 2 3 4 5 6 7 8 9 10 11 12 13 14 15 16 17 18 19 20 21 22 23 24 25 26 27 28 29 30 31 32 33 34 35 36 37 38 39 40 41 42 43 44 45 46 47 48 49 50

000
ASUS43 KEAX 300810
RWREAX

WEATHER ROUNDUP FOR EASTERN KANSAS AND NORTHWEST MISSOURI
NATIONAL WEATHER SERVICE KANSAS CITY/PLEASANT HILL MO
300 AM CDT THU JUL 30 2015

KSZ040-057-103>105-MOZ028-029-037-043-300900-
...KANSAS CITY METROPOLITAN AREA...

CITY           SKY/WX    TMP DP  RH WIND       PRES   REMARKS
K.C. INTL      PTCLDY    71  63  75 CALM      30.17S
K.C. DOWNTOWN  CLEAR     70  66  87 CALM      30.17R
LEES SUMMIT    CLEAR     67  64  90 CALM      30.18S
OLATHE - IXD   CLEAR     69  66  90 CALM      30.19S
OLATHE - OJC   CLEAR     68  65  90 CALM      30.18R
LAWRENCE       CLEAR     65  63  93 NW3       30.18S

$$

MOZ001>008-011>017-020>025-030>033-038>040-044>046-053-054-300900-
...NORTHERN AND CENTRAL MISSOURI...

CITY           SKY/WX    TMP DP  RH WIND       PRES   REMARKS
ST. JOSEPH       N/A     63  62  97 CALM      30.17S
MOSBY          MOSUNNY   64  64 100 CALM      30.17S
WARRENSBURG    CLEAR     64  64 100 CALM      30.16S
WHITEMAN AFB   CLEAR     65  63  93 CALM      30.16R
CLINTON        PTCLDY    66  64  94 N3        30.17S
SEDALIA        CLEAR     67  62  84 CALM      30.18R
WARSAW         NOT AVBL
CHILLICOTHE      N/A     65  63  93 CALM      30.17F
KIRKSVILLE     CLEAR     63  61  93 W3        30.17S

$$

MOZ041-047>049-056>058-063>065-088>090-097-300900-
...EASTERN AND SOUTHERN MISSOURI...

CITY           SKY/WX    TMP DP  RH WIND       PRES   REMARKS
ST. LOUIS INTL PTCLDY    72  62  71 NW7       30.12F
SPIRIT OF STL  CLEAR     64  63  96 W3        30.12S
COLUMBIA       CLEAR     68  61  78 N6        30.16R
JEFFERSON CITY PTCLDY    66  63  90 NW3       30.15R
ROLLA          PTCLDY    65  62  90 CALM      30.14F
OSAGE BEACH    MOCLDY    66  63  88 CALM      30.16S
SPRINGFIELD    MOCLDY    73  65  75 N3        30.16S
BRANSON        CLOUDY    75  68  78 CALM      30.16S
JOPLIN         CLOUDY    75  68  78 NE6       30.15S
WEST PLAINS    CLEAR     70  64  81 NE5       30.15F

$$

IAZ060-094-KSZ022-034>040-054-083-096-NEZ052-066-093-300900-
...KANSAS...SOUTHEAST NEBRASKA AND IOWA...

CITY           SKY/WX    TMP DP  RH WIND       PRES   REMARKS
TOPEKA         CLEAR     67  66  97 CALM      30.18S
MANHATTAN      CLEAR     65  64  97 CALM      30.18S
EMPORIA        CLOUDY    70  67  90 E3        30.18S
CHANUTE        CLOUDY    76  66  71 E6        30.16S
WICHITA        MOCLDY    76  68  76 E10       30.16S
OMAHA          CLEAR     67  60  78 SE3       30.16S
LINCOLN        CLEAR     61  58  90 CALM      30.19S
FALLS CITY     CLEAR     64  64 100 NW3       30.18R FOG
LAMONI         CLEAR     68  58  70 W6        30.16F
DES MOINES     CLEAR     67  59  75 SW6       30.13S

$$




USA.gov is the U.S. government's official web portal to all federal, state and local government web resources and services.